FALCON 9 R/B, 60234

Orbit data source: Space-Track

FALCON 9 R/B, 60234 is space debris in HEO originally from a launch on Mon, 08 Jul 2024 UTC launched from the Air Force Eastern Test Range (AFETR). Debris objects in space refer to the collection of defunct objects orbiting the Earth. Examples of debris include non-operational satellites, rocket bodies, and fragments generated from explosions, collisions, or faulty payload assembly.

Loading next visibility...
Identifier
60234, 2024-127B
Orbit
HEO
Country
Flag of USUS
Related business
Manufacturer
SpaceX
Mission
Spacecraft
Bus & Motor
F9ST2, Unknown motor
Mass
~4,000 kg wet, ~4,000 kg dry
Launch date (UTC)
2024-07-08 (2 years ago)
Launch vehicle
Unknown
Launch site
Air Force Eastern Test Range (AFETR)
Object type
Payload
Rocket body
Debris
Shape & HBR
Cyl, 7.8 m
Radar Cross Section
39.980 m², Large (>1 m²)

Expand to show TLE details & history
Last TLE update: 21 hours ago

TLE from 21 hours ago
0 FALCON 9 R/B
1 60234U 24127B   26126.17940510 -.00000268  00000-0 -13202-3 0  9994
2 60234  27.3386  14.8248 8341714 343.0256   1.2718  1.03947458  6651
Epoch: 2026-05-06T04:18Z
TLE epoch observation values (Epoch: 2026-05-06T04:18:20.600Z)
Latitude
0.0014°
Longitude
86.17508°
Altitude
607.692 km
Speed
10.219 km/s
True Right ascension
00h 59m 13s
True Declination
0° 00' 05"
Sunlit
Object was in daylight at epoch
Visualization orbit readout
Latitude
Unknown
Longitude
Unknown
Altitude
Unknown
Speed
Unknown
Apparent Right ascension
Unknown
Apparent Declination
Unknown
Sunlit
N/A
Visualization observer readout
Local Sidereal Time
08:55:10
Azimuth
Unknown
Elevation
Unknown
Doppler factor
Unknown
Orbital elements
Apogee altitude
69,133.192 km
Perigee altitude
448.89 km
Semi-major axis
41,169.178 km
Eccentricity
0.83417
Inclination
27.3386°
RAAN
14.8248°
Arg. of periapsis
343.0256°
True anomaly
24.78266°
Mean anomaly
1.2718°
Eccentric anomaly
7.55915°
Mean motion
0.25983 °/min
Orbital period
1,385.54 mins
BSTAR
-0.00013202
Loading maneuver chart data...
Computing Atmospheric mass density...
Loading historical data...
Loading historical data...
Loading historical data...
Loading historical data...
Loading historical data...
Loading historical data...
Loading historical data...
Other satellites on launch #127 in the year 2024 (2024-07-08 UTC)

Documentation

Showing up to 5 results
|